Tiempo cada hora Dabra

Hoy, 14 Mayo, Viernes

Tiempo Temperatura Precipitaciones Viento Presión Humedad
00:00 +32°C° 0 mm 2 mps 734 mmHg 35%
01:00 +33°C° 0 mm 3 mps 734 mmHg 39%
02:00 +31°C° 0 mm 3 mps 733 mmHg 42%
03:00 +31°C° 0 mm 2 mps 734 mmHg 43%
04:00 +31°C° 0 mm 1 mps 734 mmHg 44%
05:00 +30°C° 0 mm 1 mps 734 mmHg 45%
06:00 +31°C° 0 mm 1 mps 735 mmHg 41%
07:00 +33°C° 0 mm 1 mps 735 mmHg 38%
08:00 +36°C° 0 mm 2 mps 736 mmHg 34%
09:00 +36°C° 0 mm 1 mps 736 mmHg 30%
10:00 +39°C° 0 mm 1 mps 735 mmHg 25%
11:00 +38°C° 0 mm 0 mps 735 mmHg 21%
12:00 +41°C° 0 mm 1 mps 734 mmHg 19%
13:00 +42°C° 0 mm 1 mps 733 mmHg 17%
14:00 +43°C° 0 mm 2 mps 732 mmHg 15%
15:00 +43°C° 0.1 mm 3 mps 732 mmHg 16%
16:00 +42°C° 0.1 mm 4 mps 732 mmHg 18%
17:00 +41°C° 0.1 mm 5 mps 732 mmHg 19%
18:00 +40°C° 0 mm 4 mps 732 mmHg 22%
19:00 +38°C° 0 mm 3 mps 733 mmHg 24%
20:00 +37°C° 0 mm 2 mps 733 mmHg 26%
21:00 +36°C° 0 mm 2 mps 733 mmHg 27%
22:00 +36°C° 0 mm 2 mps 734 mmHg 27%
23:00 +35°C° 0 mm 2 mps 734 mmHg 28%

Mañana, 15 Mayo, Sábado

Tiempo Temperatura Precipitaciones Viento Presión Humedad
00:00 +35°C° 0 mm 2 mps 733 mmHg 29%
01:00 +34°C° 0 mm 2 mps 733 mmHg 30%
02:00 +33°C° 0 mm 1 mps 733 mmHg 30%
03:00 +32°C° 0 mm 1 mps 733 mmHg 30%
04:00 +32°C° 0 mm 1 mps 733 mmHg 30%
05:00 +32°C° 0 mm 1 mps 734 mmHg 30%
06:00 +35°C° 0 mm 2 mps 734 mmHg 27%
07:00 +37°C° 0 mm 2 mps 735 mmHg 24%
08:00 +38°C° 0 mm 3 mps 735 mmHg 21%
09:00 +40°C° 0 mm 3 mps 735 mmHg 19%
10:00 +43°C° 0 mm 4 mps 735 mmHg 17%
11:00 +44°C° 0 mm 4 mps 735 mmHg 14%
12:00 +45°C° 0 mm 4 mps 734 mmHg 13%
13:00 +46°C° 0 mm 3 mps 733 mmHg 12%
14:00 +46°C° 0 mm 3 mps 733 mmHg 11%
15:00 +46°C° 0 mm 3 mps 732 mmHg 11%
16:00 +45°C° 0 mm 4 mps 732 mmHg 11%
17:00 +45°C° 0 mm 4 mps 732 mmHg 12%
18:00 +43°C° 0 mm 4 mps 732 mmHg 14%
19:00 +42°C° 0 mm 5 mps 733 mmHg 15%
20:00 +41°C° 0 mm 5 mps 733 mmHg 17%
21:00 +40°C° 0 mm 4 mps 733 mmHg 18%
22:00 +38°C° 0 mm 4 mps 734 mmHg 19%
23:00 +38°C° 0 mm 3 mps 734 mmHg 20%

Pasado mañana, 16 Mayo, Domingo

Tiempo Temperatura Precipitaciones Viento Presión Humedad
00:00 +37°C° 0 mm 3 mps 734 mmHg 21%
01:00 +37°C° 0 mm 3 mps 733 mmHg 21%
02:00 +37°C° 0 mm 3 mps 733 mmHg 22%
03:00 +36°C° 0 mm 3 mps 733 mmHg 22%
04:00 +36°C° 0 mm 3 mps 734 mmHg 23%
05:00 +35°C° 0 mm 3 mps 734 mmHg 23%
06:00 +37°C° 0 mm 4 mps 734 mmHg 21%
07:00 +40°C° 0 mm 4 mps 735 mmHg 20%
08:00 +42°C° 0 mm 4 mps 735 mmHg 18%
09:00 +43°C° 0 mm 4 mps 735 mmHg 17%
10:00 +45°C° 0 mm 3 mps 735 mmHg 16%
11:00 +46°C° 0 mm 3 mps 735 mmHg 15%
12:00 +47°C° 0 mm 2 mps 734 mmHg 13%
13:00 +46°C° 0 mm 1 mps 733 mmHg 12%
14:00 +47°C° 0 mm 1 mps 733 mmHg 10%
15:00 +46°C° 0 mm 1 mps 732 mmHg 11%
16:00 +47°C° 0 mm 2 mps 732 mmHg 12%
17:00 +47°C° 0 mm 3 mps 732 mmHg 13%
18:00 +46°C° 0 mm 3 mps 732 mmHg 14%
19:00 +44°C° 0 mm 3 mps 733 mmHg 16%
20:00 +42°C° 0 mm 2 mps 733 mmHg 17%
21:00 +43°C° 0 mm 3 mps 733 mmHg 18%
22:00 +42°C° 0 mm 3 mps 734 mmHg 19%
23:00 +42°C° 0 mm 3 mps 734 mmHg 20%

17 Mayo, Lunes

Tiempo Temperatura Precipitaciones Viento Presión Humedad
00:00 +42°C° 0 mm 3 mps 734 mmHg 21%
01:00 +41°C° 0 mm 4 mps 733 mmHg 23%
02:00 +41°C° 0 mm 4 mps 733 mmHg 24%
03:00 +40°C° 0 mm 4 mps 733 mmHg 25%
04:00 +40°C° 0 mm 4 mps 734 mmHg 26%
05:00 +39°C° 0 mm 5 mps 734 mmHg 27%
06:00 +40°C° 0 mm 5 mps 735 mmHg 27%
07:00 +40°C° 0 mm 5 mps 735 mmHg 28%
08:00 +40°C° 0 mm 5 mps 736 mmHg 29%
09:00 +41°C° 0 mm 5 mps 736 mmHg 25%
10:00 +42°C° 0 mm 5 mps 736 mmHg 21%
11:00 +43°C° 0 mm 5 mps 736 mmHg 18%
12:00 +45°C° 0 mm 5 mps 735 mmHg 16%
13:00 +46°C° 0 mm 5 mps 735 mmHg 15%
14:00 +46°C° 0 mm 5 mps 734 mmHg 13%
15:00 +45°C° 0 mm 6 mps 734 mmHg 14%
16:00 +44°C° 0 mm 7 mps 734 mmHg 16%
17:00 +44°C° 0 mm 8 mps 734 mmHg 17%
18:00 +41°C° 0 mm 7 mps 734 mmHg 20%
19:00 +40°C° 0 mm 5 mps 735 mmHg 23%
20:00 +38°C° 0 mm 4 mps 735 mmHg 26%
21:00 +38°C° 0 mm 3 mps 735 mmHg 27%
22:00 +37°C° 0 mm 2 mps 735 mmHg 27%
23:00 +34°C° 0 mm 0 mps 735 mmHg 28%

18 Mayo, Martes

Tiempo Temperatura Precipitaciones Viento Presión Humedad
00:00 +36°C° 0 mm 1 mps 735 mmHg 29%
01:00 +35°C° 0 mm 1 mps 734 mmHg 29%
02:00 +36°C° 0 mm 2 mps 734 mmHg 30%
03:00 +36°C° 0 mm 2 mps 734 mmHg 30%
04:00 +36°C° 0 mm 2 mps 734 mmHg 30%
05:00 +36°C° 0 mm 2 mps 734 mmHg 30%
06:00 +36°C° 0 mm 3 mps 735 mmHg 28%
07:00 +37°C° 0 mm 3 mps 736 mmHg 25%
08:00 +38°C° 0 mm 4 mps 736 mmHg 23%
09:00 +40°C° 0 mm 4 mps 736 mmHg 22%
10:00 +41°C° 0 mm 4 mps 736 mmHg 21%
11:00 +42°C° 0 mm 3 mps 736 mmHg 20%
12:00 +43°C° 0 mm 4 mps 735 mmHg 19%
13:00 +43°C° 0 mm 4 mps 735 mmHg 19%
14:00 +44°C° 0 mm 4 mps 734 mmHg 18%
15:00 +43°C° 0 mm 5 mps 734 mmHg 19%
16:00 +42°C° 0 mm 6 mps 734 mmHg 20%
17:00 +43°C° 0 mm 7 mps 734 mmHg 21%
18:00 +40°C° 0 mm 7 mps 734 mmHg 24%
19:00 +39°C° 0 mm 6 mps 735 mmHg 26%
20:00 +36°C° 0 mm 6 mps 735 mmHg 28%
21:00 +36°C° 0 mm 5 mps 735 mmHg 29%
22:00 +35°C° 0 mm 5 mps 735 mmHg 30%
23:00 +35°C° 0 mm 4 mps 735 mmHg 30%

19 Mayo, Miércoles

Tiempo Temperatura Precipitaciones Viento Presión Humedad
00:00 +34°C° 0 mm 3 mps 735 mmHg 31%
01:00 +34°C° 0 mm 2 mps 735 mmHg 32%
02:00 +30°C° 0 mm 0 mps 735 mmHg 33%
03:00 +32°C° 0 mm 1 mps 735 mmHg 34%
04:00 +32°C° 0 mm 1 mps 735 mmHg 35%
05:00 +31°C° 0 mm 1 mps 735 mmHg 35%
06:00 +34°C° 0 mm 2 mps 735 mmHg 33%
07:00 +35°C° 0 mm 2 mps 736 mmHg 31%
08:00 +36°C° 0 mm 3 mps 736 mmHg 28%
09:00 +38°C° 0 mm 3 mps 736 mmHg 26%
10:00 +40°C° 0 mm 3 mps 735 mmHg 24%
11:00 +43°C° 0 mm 3 mps 735 mmHg 22%
12:00 +44°C° 0 mm 3 mps 734 mmHg 21%
13:00 +45°C° 0 mm 4 mps 734 mmHg 20%
14:00 +47°C° 0 mm 4 mps 733 mmHg 20%
15:00 +47°C° 0 mm 4 mps 733 mmHg 20%
16:00 +47°C° 0 mm 4 mps 732 mmHg 20%
17:00 +47°C° 0 mm 5 mps 732 mmHg 20%
18:00 +46°C° 0 mm 5 mps 732 mmHg 21%
19:00 +45°C° 0 mm 5 mps 732 mmHg 22%
20:00 +43°C° 0 mm 5 mps 733 mmHg 24%
21:00 +42°C° 0 mm 4 mps 733 mmHg 25%
22:00 +40°C° 0 mm 3 mps 733 mmHg 26%
23:00 +39°C° 0 mm 3 mps 733 mmHg 27%
Mostrar más

Necesitamos Su Consentimiento

Meteoprog y nuestros Proveedores de Servicios pueden almacenar y acceder a sus datos personales como cookies, identificadores de dispositivo u otras tecnologías similares de su dispositivo y procesar dichos datos para personalizar contenido y anuncios, además de ofrecer funciones de redes sociales y analizar el tráfico.

  • Almacenar y/o acceder a información en su dispositivo

    Se puede almacenar o acceder a cookies, identificadores de dispositivo u otra información de su dispositivo para los fines anteriormente indicados.

  • Anuncios y contenido personalizados, medición de anuncios y contenido, percepciones del público, y desarrollo de productos

    Los anuncios y el contenido pueden personalizarse en base a su perfil. Se pueden añadir más datos para personalizar mejor los anuncios y contenidos. Se puede medir el rendimiento de los anuncios y contenidos. Se puede obtener la percepción sobre el público que ha visto los anuncios y contenidos. Dichos datos pueden usarse para desarrollar o mejorar la experiencia del usuario, sistemas y software.

Al hacer clic en ‘Estoy De Acuerdo’ usted permitirá el uso de las cookies, identificadores de dispositivo, balizas web u otras tecnologías similares indicadas. Su configuración puede cambiarse desde el navegador de su dispositivo.

Para ciertos fines, los intereses legítimos pueden ser considerados por encima del consentimiento. Puede leer más sobre ello en nuestra Política de Privacidad y Cookies.